Portada
METAR-TAF:

METAR-TAF

Aeroports :

Munising, Michigan, Estats Units d'Amèrica

latitud: 46-24N, longitud: 086-39W, altitud: 187 m

Observació

L'informe es va fer fa 59 minuts, a les 11:56 UTC
Vent 10 kt del Sud/Sud-Oest amb ràfegues de 18 kt
Temperatura 2°C
Humitat 75%
Pressió 1009 hPa

METAR: KP53 161156Z AUTO 20010G18KT 02/M02 A2981 RMK AO1 SLP102 70003 T00221022 10022 20000 56018

Hora: 08:55 (12:55 UTC)


TAF: manca

Observacions i pronòstics meteorològics de més de 4000 aeroports (METAR i TAF).

Les estacions disponibles són els punts grocs i vermells al mapa.

Posi el ratolí al punt desitjat per veure el nom de l'estació.

Feu clic per veure les observacions i els pronòstics meteorològics.

Per canviar el mapa: feu clic els botons verds amb una creu de color negre per apropar; al botó verd amb un guió per allunyar la imatge; o en les fletxes verdes per a mapes adjacents.


METAR-TAF: